Location: Unspecified
(40.7945°N, 0.0000°E)
Time: 03:35:55
(UTC+00:00)

Altair - Pass Details

Date: 24 January 2021
Orbit: 1501 x 1682 km, 47.2° (Epoch: 01 March)

Event Time Altitude Azimuth Distance (km) Brightness Sun altitude
Rises 02:54:36 0° 192° (SSW) 4,802 - -49.2°
Reaches altitude 10° 02:58:19 10° 180° (S) 3,847 - -48.6°
Exits shadow 03:05:00 26° 137° (SE) 2,811 8.9 -47.4°
Maximum altitude 03:06:03 27° 128° (SE) 2,792 8.9 -47.2°
Drops below altitude 10° 03:13:56 10° 76° (ENE) 3,939 10.2 -45.7°
Sets 03:17:45 0° 65° (ENE) 4,938 10.9 -45.0°
